#timestamp,LO_Frequency,Hit,StdDev 
1511924415.8,286047002.1,N
1511924435.6,286047000.7,N
1511924455.5,286047001.1,N
1511924475.3,286047003.2,N
1511924495.1,286047002.2,N
1511924515.9,286047003.5,N
1511924535.7,286047005.2,N
1511924555.5,286047002.0,N
1511924575.4,286047004.5,N
1511924595.2,286047007.2,N
1511924615.0,286047008.9,N
1511924615.9,286047008.9,N
1511924635.7,286047006.2,N
1511924655.6,286047009.1,N
1511924675.4,286047008.0,N
1511924695.2,286047008.7,N
1511924715.1,286047007.9,N
1511924716.0,286047007.9,N
1511924735.8,286047010.2,N
1511924755.6,286047010.0,N
1511924775.5,286047008.1,N
1511924795.3,286047010.4,N
1511924815.1,286047009.9,N
1511924835.9,286047008.4,N
1511924855.7,286047010.1,N
1511924875.5,286047008.2,N
1511924895.4,286047011.8,N
1511924915.2,286047012.3,Y
1511924935.0,286047005.9,P
1511924935.9,286047005.9,P
1511924955.8,286047003.0,P
1511924975.6,286047004.3,Y
1511924995.4,286046999.6,P
1511925015.3,286046995.5,N
1511925035.1,286046997.3,N
1511925036.0,286046997.3,N
1511925055.8,286046996.1,N
1511925075.7,286046996.0,N
1511925095.5,286046996.2,N
1511925115.3,286046995.1,N
1511925135.1,286046997.7,N
1511925155.9,286046996.1,N
1511925175.7,286046992.1,N
1511925195.5,286046991.8,N
1511925215.4,286046994.3,N
1511925235.2,286046993.8,N
1511925255.0,286046996.4,N
1511925255.9,286046996.4,N
1511925275.8,286046995.2,N
1511925295.6,286046992.5,N
1511925315.4,286046994.4,N
1511925335.3,286046995.3,N
1511925355.1,286046994.9,N
1511925356.0,286046994.9,N
1511925375.8,286046996.4,N
1511925395.7,286046992.2,N
1511925415.5,286046991.4,Y
1511925435.3,286046993.8,P
1511925455.2,286046996.0,P
1511925475.9,286046994.2,P
1511925495.7,286046992.9,Y
1511925515.6,286046997.2,P
1511925535.4,286046997.8,N
1511925555.2,286046997.3,N
1511925575.1,286046996.5,Y
1511925576.0,286046996.5,P
1511925595.8,286047000.0,N
1511925615.6,286047001.7,N
1511925635.5,286047000.3,N
1511925655.3,286046996.5,N
1511925675.1,286046995.5,N
1511925695.9,286046992.7,Y
1511925715.7,286046995.1,P
1511925735.5,286046997.5,N
1511925755.4,286046995.2,P
1511925775.2,286046996.2,N
1511925795.0,286046990.7,Y
1511925795.9,286046990.7,P
1511925815.8,286046995.5,N
1511925835.6,286046999.0,N
1511925855.4,286047000.5,N
1511925875.3,286047000.6,N
1511925895.1,286047002.3,N
1511925896.0,286047002.3,N
1511925915.8,286047004.0,N
1511925935.7,286047001.9,N
1511925955.5,286047004.0,N
1511925975.3,286046998.9,N
1511925995.1,286046997.0,N
1511926015.9,286047000.1,N
1511926035.7,286046997.6,N
1511926055.5,286046997.9,N
1511926075.4,286046993.8,N
1511926095.2,286046995.7,N
1511926115.0,286046992.2,N
1511926115.9,286046992.2,N
1511926135.8,286046991.7,N
1511926155.6,286046993.7,N
1511926175.4,286046992.1,N
1511926195.3,286046994.0,N
1511926215.1,286046996.4,N
1511926216.0,286046996.4,N
1511926235.8,286046994.2,N
1511926255.7,286046993.1,N
1511926275.5,286046993.2,N
1511926295.3,286046993.9,N
1511926315.1,286046995.5,N
1511926335.9,286046997.7,N
1511926355.7,286046995.6,N
1511926375.5,286046997.7,N
1511926395.4,286046997.9,N
1511926415.2,286046997.1,N
1511926435.0,286046997.8,N
1511926435.9,286046997.8,N
1511926455.8,286046995.1,N
1511926475.6,286046996.2,N
1511926495.4,286046996.6,N
1511926515.3,286047000.3,N
1511926535.1,286046996.6,N
1511926536.0,286046996.6,N
1511926555.8,286046999.3,N
1511926575.7,286047000.4,N
1511926595.5,286047001.6,N
1511926615.3,286047005.5,N
1511926635.2,286047003.6,N
1511926655.9,286047001.9,N
1511926675.7,286047005.1,N
1511926695.6,286047006.1,N
1511926715.4,286047006.6,N
1511926735.2,286047005.1,N
1511926755.0,286047003.1,N
1511926756.0,286047003.1,N
1511926775.8,286047003.3,N
1511926795.6,286047004.1,N
1511926815.4,286047000.1,N
1511926835.3,286046999.7,N
1511926855.1,286047002.4,N
1511926875.8,286047003.2,N
1511926895.7,286047002.9,N
1511926915.5,286047006.3,N
1511926935.3,286047010.2,N
1511926955.2,286047009.7,N
1511926975.9,286047008.2,N
1511926995.7,286047007.2,N
1511927015.6,286047008.4,N
1511927035.4,286047011.7,Y
1511927055.2,286047004.7,P
1511927075.1,286047003.3,P
1511927076.0,286047003.3,P
1511927095.8,286047004.8,Y
1511927115.6,286046996.9,P
1511927135.5,286046996.7,N
1511927155.3,286046997.3,N
1511927175.1,286046997.3,N
1511927195.9,286046997.6,N
1511927215.7,286046996.8,N
1511927235.5,286046996.5,N
1511927255.3,286047002.4,N
1511927275.2,286047000.2,N
1511927295.0,286046998.4,N
1511927295.9,286046998.4,N
1511927315.7,286047001.5,N
1511927335.6,286047005.4,N
1511927355.4,286047002.6,N
1511927375.2,286047001.1,N
1511927395.1,286047002.1,N
1511927396.0,286047002.1,N
1511927415.8,286047004.1,N
1511927435.6,286047003.2,N
1511927455.5,286047003.1,N
1511927475.3,286047003.7,N
1511927495.1,286047004.3,N
1511927515.9,286047001.9,N
1511927535.7,286047002.5,N
1511927555.5,286047001.5,N
1511927575.3,286047003.9,N
1511927595.2,286046998.6,N
1511927615.0,286046998.8,N
1511927615.9,286046998.8,N
1511927635.7,286046997.7,N
1511927655.6,286046994.5,N
1511927675.4,286046991.8,N
1511927695.2,286046991.0,N
1511927715.1,286046990.6,N
1511927716.0,286046990.6,N
1511927735.8,286046994.2,N
1511927755.6,286046994.7,N
1511927775.5,286046995.7,N
1511927795.3,286046990.5,N
1511927815.1,286046989.3,N
1511927835.9,286046989.8,N
1511927855.7,286046989.7,N
1511927875.5,286046992.4,N
1511927895.3,286046994.8,N
1511927915.2,286046989.3,N
1511927935.0,286046986.8,N
1511927935.9,286046986.8,N
1511927955.7,286046985.2,N
1511927975.6,286046986.1,N
1511927995.4,286046988.9,N
